Location: McFarlands Corners
(41.4117°N, 81.3382°W)
Time: 13:10:09
(UTC+00:00)

Explorer 7 - Pass Details

Date: 20 February 2026
Orbit: 430 x 541 km, 50.2° (Epoch: 12 March)

Event Time Altitude Azimuth Distance (km) Brightness Sun altitude
Rises 20:16:51 0° 258° (WSW) 2,411 10.9 26.5°
Reaches altitude 10° 20:19:02 10° 267° (W) 1,557 10.0 26.2°
Maximum altitude 20:22:20 38° 337° (NNW) 707 7.5 25.8°
Drops below altitude 10° 20:25:44 10° 47° (NE) 1,613 8.7 25.3°
Sets 20:28:03 0° 56° (NE) 2,513 9.6 25.0°
